Location: Unspecified
(0.0000°N, 0.0000°E)
Time: 09:32:18
(UTC+00:00)

S-56A Canister/Altair - Pass Details

Date: 13 December 2018
Orbit: 633 x 2500 km, 38.9° (Epoch: 24 March)

Event Time Altitude Azimuth Distance (km) Brightness Sun altitude
Rises 10:39:26 0° 320° (NW) 6,167 11.8 60.6°
Reaches altitude 10° 10:43:46 10° 325° (NW) 5,115 11.5 61.2°
Maximum altitude 10:57:53 54° 39° (NE) 2,464 10.8 63.1°
Drops below altitude 10° 11:08:21 10° 113° (ESE) 3,898 11.6 64.3°
Sets 11:11:09 0° 117° (ESE) 4,654 11.8 64.6°
